Torna al catalogo

METEOR 2-7 DEB

AttivoPO
NORAD 28388·DEBRIS·🇷🇺 Russia

Lanciato May 14, 1981 da Plesetsk Cosmodrome

Loading…

Prossimi Passaggi (prossime 24 ore)

TLE

AggiornatoSource: Space-Track

Epoca: Sep 14, 2026, 13:15 UTC

1 28388U 81043E   26257.55266989  .00006961  00000-0  14909-2 0  9994
2 28388  81.2655 196.7845 0018825 107.5943 252.7312 14.58530536661118

Traccia METEOR 2-7 DEB in tempo reale con AllMySat

Download on the App Store